    Observer details:
    033 Karl Schwarzschild Observatory, Tautenburg.  Observers S. Melnikov, C.
        Hogner, F. Ludwig, M. Hartmann, B. Stecklum.  Measurer B. Stecklum.
        1.34-m f/3 Schmidt + CCD.
    106 Crni Vrh.  Observer H. Mikuz.  0.60-m f/3.3 reflector + CMO.
    474 Mount John Observatory, Lake Tekapo.  Observers A. C. Gilmore, P. M.
        Kilmartin.  Measurer P. M. Kilmartin.  1.0-m f/7.7 reflector + CCD.
    807 Cerro Tololo Observatory, La Serena.  Observers T. Linder, R. Holmes, L.
        Horn.  0.61-m f/11 Ritchey-Chretien + CCD.
    958 Observatoire de Dax.  Observer P. Dupouy.  0.50-m f/4.5 Reflector + CMO.
    C94 MASTER-II Observatory, Tunka.  Observers Y. Kechin, V. Lipunov, E.
        Gorbovskoy, N. Tiurina, P. Balanutsa, V. Kornilov, A. Kuznetsov, O. Gress,
        D. Zimnukhov, S. Yazev, N. Budnev.  0.4-m f/2.5 reflector   CCD.
    H21 Astronomical Research Observatory, Westfield.  Observer R. Holmes.
        Measurers T. Linder, R. Holmes, L. Horn.  0.76-m f/3.0 astrograph + CCD.
    H36 Sandlot Observatory, Scranton.  Observer G. Hug.  0.56-m f/4.8 reflector +
        CMO.
    J95 Great Shefford.  Observer P. Birtwhistle.  0.41-m f/6.3 Schmidt-Cassegrain
        + CCD.
    L01 Visnjan Observatory, Tican.  Observer K. Korlevic.  1.0-m f/2.9 reflector
        + CCD.
    L47 Osservatorio Astronomico, Piobbico.  Observers A. Teseo, A. Annamelia.
        Measurer A. Teseo.  0.2-m f/7.2 Schmidt-Cassegrain + CCD.
    L65 Bredenkamp Observatory, Bremen.  Observer H. Duin.  0.23-m f/6.3 reflector
        + CMO.
    M29 O.M.Ni.A. Observatory, Cesena.  Observers V. Tinella, A. De Pieri.  0.40-m
        f/8 reflector + CCD.
    M49 IAS Remote Observatory, Hakos.  Observers D. Husar, M. Junius.  Measurer
        D. Husar.  0.25-m f/4.5 reflector + CMO.
    O85 LiShan Observatory, Lintong.  Observers Y. Yu, K. Tang, A. Pomazan.
        0.50-m f/7.0 Cassegrain + CCD.
    U52 Shasta Valley Observatory, Grenada.  Observers J. E. Rogers, B. Haeusler.
        Measurers J. E. Rogers, D. Parrott.  0.30-m f/5.2 Helin Telescope + CCD.
    U68 JPL SynTrack Robotic Telescope, Auberry.  Observers N. Saini, C. Zhai, R.
        Trahan, M. Zhan, M. Shao.  0.28-m Reflector + CCD.
    W68 ATLAS Chile, Rio Hurtado.  Observers L. Denneau, R. Siverd, J. Tonry, H.
        Weiland.  Measurers L. Denneau, N. Erasmus, A. Fitzsimmons, A. Lawrence,
        J. Robinson, R. Siverd, J. Tonry, H. Weiland.  0.5-m Reflector + CCD.
    
    Orbital elements:
    2023 VT10                                                Earth MOID = 0.0680 AU
    Epoch 2023 Sept. 13.0 TT = JDT 2460200.5                Bell                    
    M 219.80854              (2000.0)            P               Q                  
    n   1.14878441     Peri.  326.70661     -0.84586621     +0.17943655             
    a   0.9029084      Node   232.51618     -0.23307583     -0.97139425             
    e   0.6935924      Incl.   39.27237     -0.47977704     +0.15554977             
    P   0.86           H   22.20          G   0.15           U   8                  
    Residuals in seconds of arc
    231115 U68  0.1+  0.3+    231116 807  0.0   0.1+    231116 M49  0.1+  0.0
    231115 U68  0.1+  0.2+    231116 807  0.0   0.0     231116 M49  0.1+  0.1-
    231115 U68  0.3+  0.3+    231116 807  0.1-  0.1-    231116 M49  0.1-  0.2-
    231115 U68  0.1+  0.3+    231116 W68  0.0   0.2+    231116 958  0.1-  0.3+
    231115 L01  0.4-  0.1+    231116 H36  0.2-  0.5-    231116 958  0.2-  0.5+
    231115 L01  0.5-  0.3+    231116 W68  0.2-  0.2+    231116 958  0.3+  0.3+
    231115 L01  0.7-  0.3+    231116 H36  0.1-  0.3-    231116 L65 (0.4+  1.2+)
    231115 106  0.0   0.2+    231116 W68  0.1+  0.2+    231116 L65  0.3+  0.5-
    231115 L01  0.5-  0.3+    231116 H36  0.1+  0.0     231116 L65 (0.7-  0.9+)
    231115 L01  0.6-  0.1+    231116 H21  0.0   0.1+    231117 J95  0.0   0.4+
    231115 106  0.3-  0.2+    231116 H21  0.0   0.1+    231117 J95  0.3+  0.3+
    231115 106  0.1+  0.0     231116 H21  0.1-  0.1+    231117 J95  0.1-  0.1+
    231115 106  0.1-  0.2+    231116 H21  0.0   0.1+    231117 J95  0.1-  0.2+
    231115 033  0.1+  0.0     231116 O85  0.3+  0.1-    231117 U52  0.2-  0.4-
    231115 033  0.0   0.1+    231116 C94  0.8+  0.4+    231117 U52  0.1-  0.5-
    231115 033  0.0   0.1+    231116 C94  0.1-  1.3-    231117 U52  0.3+  0.9-
    231115 L47  1.7+  1.8-    231116 O85  0.2-  0.1+    231117 U52  0.2-  0.1+
    231115 L47  0.1+  3.4-    231116 O85  0.1+  0.0     231117 U52  0.2-  0.3-
    231115 L47  0.3-  3.3-    231116 C94  0.3-  0.2-    231117 U52  0.1+  0.1+
    231115 L47  0.1-  1.4+    231116 O85  0.3+  0.3+    231117 474  0.3-  0.2-
    231115 L47  1.6-  0.2-    231116 O85  0.3+  0.4+    231117 474  0.2-  0.2-
    231115 L47  0.2-  0.9-    231116 O85  0.2+  0.1-    231117 474  0.4-  0.1-
    231116 M29  0.8+  1.4-    231116 O85  0.3+  0.2+    231117 474  0.4-  0.2-
    231116 M29  0.7-  2.6-    231116 O85  0.1-  0.1-    231117 474  0.3-  0.3-
    231116 M29  0.7+  2.3-    231116 O85  0.2+  0.1-
    231116 807  0.0   0.0     231116 O85  0.2+  0.4+
    
    Ephemeris:
    2023 VT10                a,e,i = 0.90, 0.69, 39                  q = 0.2767
    Date    TT    R. A. (2000) Decl.     Delta      r    Elong.  Phase     V
    2023 10 18    05 45 43.1 +41 04 46   0.5206  1.3079   115.5    43.5    23.0
    ...
    2023 11 02    05 47 55.8 +35 39 28   0.2837  1.1958   130.3    39.2    21.4
    ...
    2023 11 10    05 36 12.4 +25 43 07   0.1638  1.1246   142.3    32.6    19.9
    ...
    2023 11 16    05 06 19.3 +00 35 23   0.08810 1.0655   148.9    28.7    18.3
    2023 11 17    04 56 39.1 -07 46 27   0.07931 1.0552   145.4    32.2    18.2
    2023 11 18    04 44 17.3 -17 52 29   0.07279 1.0447   138.9    38.5    18.1
    ...
    2023 11 24    00 42 18.9 -72 13 29   0.09613 0.9785    81.9    92.6    20.4
    ...
    2023 12 02    19 42 37.1 -65 17 10   0.2007  0.8811    53.4   116.1    23.0
    ...
    2023 12 17    18 35 29.0 -54 10 38   0.4267  0.6670    32.8   126.9    24.9
    
    M. P. C. Staff               (C) Copyright 2023 MPC           M.P.E.C. 2023-W17
    


    Read MPEC 2023-W16 Read MPEC 2023-W18


    MPEC number:

    Enter an MPEC number in one of the following forms:

    • 1997-B01 (the full form)
    • J97B01 (the packed version of the full form)
    • B01 (the abbreviated form)